HAZ2814 ZHCC-ZUUU

Flight info

Callsign HAZ2814
Flight time 2h 4m
Altitude 36100
Route DUD9W DUDBI W37 UDUMI W80 URGEG W231 EKOKA EKOKA7U
Aircraft A321/M-SDE3FGHIRWY/LB1

Departure

Time 2026-04-20 13:09
Airport Zhengzhou Xinzheng International Airport (ZHCC)

Arrival

Time 2026-04-20 15:14
Airport Chengdu Shuangliu International Airport (ZUUU)
Time Latitude Longitude Altitude Speed Heading
2026-04-20 12:57 34.52604 113.83932 505 ft 0 kts 22°
2026-04-20 13:01 34.52585 113.83922 505 ft 4 kts 22°
2026-04-20 13:01 34.52562 113.83910 505 ft 4 kts 16°
2026-04-20 13:02 34.52541 113.83913 505 ft 4 kts 311°
2026-04-20 13:02 34.52528 113.83938 505 ft 2 kts 292°
2026-04-20 13:02 34.52519 113.83963 505 ft 3 kts 292°
2026-04-20 13:02 34.52518 113.83966 505 ft 0 kts 292°
2026-04-20 13:04 34.52518 113.83965 505 ft 1 kts 292°
2026-04-20 13:05 34.52530 113.83933 505 ft 8 kts 292°
2026-04-20 13:05 34.52556 113.83853 505 ft 11 kts 292°
2026-04-20 13:05 34.52550 113.83771 505 ft 11 kts 241°
2026-04-20 13:05 34.52482 113.83722 505 ft 11 kts 203°
2026-04-20 13:06 34.52398 113.83681 505 ft 16 kts 202°
2026-04-20 13:06 34.52381 113.83575 505 ft 14 kts 291°
2026-04-20 13:06 34.52422 113.83454 505 ft 18 kts 292°
2026-04-20 13:06 34.52480 113.83284 505 ft 25 kts 292°
2026-04-20 13:07 34.52546 113.83092 505 ft 24 kts 292°
2026-04-20 13:07 34.52608 113.82907 505 ft 23 kts 292°
2026-04-20 13:07 34.52658 113.82742 505 ft 13 kts 263°
2026-04-20 13:07 34.52588 113.82687 505 ft 12 kts 204°
2026-04-20 13:08 34.52511 113.82649 504 ft 13 kts 202°
2026-04-20 13:08 34.52438 113.82659 504 ft 11 kts 129°
2026-04-20 13:08 34.52397 113.82768 503 ft 25 kts 112°
2026-04-20 13:08 34.52231 113.83256 504 ft 96 kts 112°
2026-04-20 13:09 34.51903 113.84220 500 ft 149 kts 112°
2026-04-20 13:09 34.51448 113.85527 573 ft 182 kts 114°
2026-04-20 13:09 34.50812 113.86876 1135 ft 183 kts 127°
2026-04-20 13:09 34.49975 113.88018 1827 ft 180 kts 135°
2026-04-20 13:10 34.49079 113.89062 2477 ft 177 kts 136°
2026-04-20 13:10 34.48183 113.90086 2935 ft 177 kts 136°
2026-04-20 13:10 34.47288 113.91106 3411 ft 177 kts 136°
2026-04-20 13:10 34.46694 113.91784 3677 ft 179 kts 135°
2026-04-20 13:11 34.45414 113.93254 3888 ft 201 kts 135°
2026-04-20 13:11 34.44720 113.94053 3964 ft 214 kts 135°
2026-04-20 13:11 34.43583 113.95367 4084 ft 239 kts 135°
2026-04-20 13:11 34.42324 113.96817 4387 ft 258 kts 135°
2026-04-20 13:12 34.41001 113.98339 5027 ft 265 kts 135°
2026-04-20 13:12 34.39637 113.99868 5732 ft 269 kts 135°
2026-04-20 13:12 34.38247 114.01392 6482 ft 271 kts 136°
2026-04-20 13:12 34.36841 114.02924 7171 ft 273 kts 136°
2026-04-20 13:13 34.35421 114.04470 7847 ft 276 kts 136°
2026-04-20 13:13 34.33984 114.06035 8515 ft 279 kts 136°
2026-04-20 13:13 34.32503 114.07578 9154 ft 284 kts 144°
2026-04-20 13:13 34.30763 114.08757 9712 ft 290 kts 154°
2026-04-20 13:14 34.28937 114.09808 9830 ft 291 kts 154°
2026-04-20 13:14 34.27116 114.10863 9849 ft 290 kts 154°
2026-04-20 13:14 34.25328 114.11905 9851 ft 289 kts 153°
2026-04-20 13:14 34.23507 114.12964 10052 ft 293 kts 154°
2026-04-20 13:15 34.21618 114.14057 10302 ft 312 kts 154°
2026-04-20 13:15 34.19594 114.15224 10426 ft 333 kts 154°
2026-04-20 13:15 34.17442 114.16461 10548 ft 352 kts 154°
2026-04-20 13:15 34.15170 114.17766 10664 ft 371 kts 154°
2026-04-20 13:16 34.12802 114.19128 10939 ft 382 kts 154°
2026-04-20 13:16 34.10384 114.20521 11415 ft 387 kts 155°
2026-04-20 13:16 34.07937 114.21929 11925 ft 392 kts 155°
2026-04-20 13:16 34.05465 114.23347 12435 ft 396 kts 155°
2026-04-20 13:17 34.02963 114.24784 12948 ft 400 kts 156°
2026-04-20 13:17 34.00438 114.26234 13432 ft 404 kts 156°
2026-04-20 13:17 33.97888 114.27698 13920 ft 408 kts 156°
2026-04-20 13:17 33.95311 114.29171 14352 ft 412 kts 156°
2026-04-20 13:18 33.92717 114.30652 14805 ft 414 kts 156°
2026-04-20 13:18 33.90103 114.32144 15264 ft 417 kts 157°
2026-04-20 13:18 33.87480 114.33645 15711 ft 419 kts 157°
2026-04-20 13:18 33.84841 114.35156 16155 ft 422 kts 157°
2026-04-20 13:19 33.82182 114.36677 16600 ft 424 kts 157°
2026-04-20 13:19 33.79511 114.38203 17055 ft 426 kts 158°
2026-04-20 13:19 33.76825 114.39736 17457 ft 430 kts 157°
2026-04-20 13:19 33.74112 114.41283 17820 ft 434 kts 158°
2026-04-20 13:20 33.71368 114.42840 18188 ft 438 kts 158°
2026-04-20 13:20 33.68606 114.44408 18559 ft 441 kts 158°
2026-04-20 13:20 33.65820 114.45985 18903 ft 444 kts 158°
2026-04-20 13:20 33.63017 114.47575 19261 ft 447 kts 158°
2026-04-20 13:21 33.60203 114.49173 19622 ft 449 kts 158°
2026-04-20 13:21 33.57367 114.50783 19977 ft 452 kts 158°
2026-04-20 13:21 33.54519 114.52402 20323 ft 454 kts 158°
2026-04-20 13:21 33.51656 114.54029 20667 ft 457 kts 158°
2026-04-20 13:22 33.48773 114.55666 21007 ft 459 kts 159°
2026-04-20 13:22 33.45876 114.57307 21334 ft 462 kts 159°
2026-04-20 13:22 33.42964 114.58952 21671 ft 464 kts 159°
2026-04-20 13:22 33.40035 114.60605 22001 ft 466 kts 159°
2026-04-20 13:23 33.37093 114.62266 22316 ft 469 kts 159°
2026-04-20 13:23 33.34135 114.63934 22630 ft 472 kts 159°
2026-04-20 13:23 33.31157 114.65609 22932 ft 474 kts 159°
2026-04-20 13:23 33.28164 114.67289 23245 ft 477 kts 159°
2026-04-20 13:24 33.25147 114.68961 23534 ft 478 kts 161°
2026-04-20 13:24 33.22015 114.70243 23800 ft 475 kts 171°
2026-04-20 13:24 33.18825 114.70935 24029 ft 470 kts 179°
2026-04-20 13:24 33.15571 114.71047 24257 ft 466 kts 188°
2026-04-20 13:25 33.12347 114.70734 24509 ft 466 kts 190°
2026-04-20 13:25 33.09108 114.70403 24773 ft 468 kts 190°
2026-04-20 13:25 33.05863 114.70082 25036 ft 469 kts 190°
2026-04-20 13:25 33.02600 114.69766 25302 ft 471 kts 190°
2026-04-20 13:26 32.99327 114.69453 25559 ft 473 kts 190°
2026-04-20 13:26 32.96041 114.69137 25819 ft 474 kts 190°
2026-04-20 13:26 32.92749 114.68817 26102 ft 474 kts 190°
2026-04-20 13:26 32.89465 114.68495 26443 ft 473 kts 190°
2026-04-20 13:27 32.86188 114.68173 26780 ft 472 kts 190°
2026-04-20 13:27 32.82917 114.67860 27114 ft 472 kts 190°
2026-04-20 13:27 32.79645 114.67552 27447 ft 471 kts 190°
2026-04-20 13:27 32.76381 114.67246 27779 ft 470 kts 190°
2026-04-20 13:28 32.73122 114.66942 28114 ft 469 kts 190°
2026-04-20 13:28 32.69873 114.66638 28426 ft 468 kts 189°
2026-04-20 13:28 32.66624 114.66333 28765 ft 467 kts 190°
2026-04-20 13:28 32.63387 114.66029 29092 ft 466 kts 190°
2026-04-20 13:29 32.60154 114.65726 29415 ft 465 kts 190°
2026-04-20 13:29 32.56928 114.65422 29735 ft 465 kts 190°
2026-04-20 13:29 32.53708 114.65118 30052 ft 464 kts 190°
2026-04-20 13:29 32.50493 114.64816 30339 ft 463 kts 190°
2026-04-20 13:30 32.47282 114.64515 30604 ft 462 kts 191°
2026-04-20 13:30 32.44079 114.64213 30841 ft 462 kts 191°
2026-04-20 13:30 32.40880 114.63912 31110 ft 461 kts 191°
2026-04-20 13:30 32.37685 114.63614 31400 ft 459 kts 191°
2026-04-20 13:31 32.34506 114.63312 31696 ft 458 kts 191°
2026-04-20 13:31 32.31335 114.63003 31992 ft 456 kts 191°
2026-04-20 13:31 32.28176 114.62690 32296 ft 455 kts 191°
2026-04-20 13:31 32.25030 114.62378 32601 ft 453 kts 191°
2026-04-20 13:32 32.21894 114.62071 32876 ft 451 kts 190°
2026-04-20 13:32 32.18777 114.61767 33237 ft 448 kts 191°
2026-04-20 13:32 32.15680 114.61466 33587 ft 445 kts 191°
2026-04-20 13:32 32.12601 114.61168 33909 ft 443 kts 191°
2026-04-20 13:33 32.09537 114.60872 34198 ft 441 kts 191°
2026-04-20 13:33 32.06482 114.60577 34456 ft 440 kts 191°
2026-04-20 13:33 32.03436 114.60282 34704 ft 438 kts 191°
2026-04-20 13:33 32.00401 114.59988 34938 ft 437 kts 191°
2026-04-20 13:34 31.97375 114.59697 35158 ft 436 kts 190°
2026-04-20 13:34 31.94364 114.59408 35458 ft 433 kts 191°
2026-04-20 13:34 31.91369 114.59121 35713 ft 431 kts 191°
2026-04-20 13:34 31.88392 114.58835 35950 ft 429 kts 191°
2026-04-20 13:35 31.85415 114.58544 36152 ft 429 kts 191°
2026-04-20 13:35 31.79469 114.57965 36225 ft 428 kts 191°
2026-04-20 13:36 31.73533 114.57392 36216 ft 428 kts 191°
2026-04-20 13:36 31.67600 114.56820 36216 ft 428 kts 191°
2026-04-20 13:37 31.61661 114.56249 36207 ft 428 kts 190°
2026-04-20 13:37 31.55764 114.55693 36211 ft 428 kts 190°
2026-04-20 13:38 31.49837 114.55131 36195 ft 427 kts 191°
2026-04-20 13:38 31.43905 114.54556 36193 ft 428 kts 191°
2026-04-20 13:39 31.37976 114.53984 36185 ft 428 kts 190°
2026-04-20 13:39 31.32040 114.53420 36187 ft 428 kts 191°
2026-04-20 13:40 31.26114 114.52772 36185 ft 424 kts 196°
2026-04-20 13:40 31.20629 114.50590 36157 ft 415 kts 210°
2026-04-20 13:41 31.15411 114.47676 36155 ft 417 kts 210°
2026-04-20 13:41 31.10125 114.44742 36147 ft 418 kts 210°
2026-04-20 13:42 31.04891 114.41845 36155 ft 419 kts 210°
2026-04-20 13:42 30.96976 114.37477 36159 ft 420 kts 209°
2026-04-20 13:43 30.91693 114.34565 36184 ft 420 kts 209°
2026-04-20 13:43 30.86378 114.31744 36191 ft 420 kts 208°
2026-04-20 13:44 30.81035 114.28981 36196 ft 420 kts 208°
2026-04-20 13:44 30.75719 114.26158 36191 ft 419 kts 209°
2026-04-20 13:45 30.70449 114.23267 36198 ft 419 kts 209°
2026-04-20 13:45 30.65187 114.20380 36196 ft 418 kts 209°
2026-04-20 13:46 30.59914 114.17517 36190 ft 418 kts 209°
2026-04-20 13:46 30.55248 114.13793 36174 ft 404 kts 238°
2026-04-20 13:47 30.54128 114.10843 36146 ft 402 kts 259°
2026-04-20 13:47 30.54043 114.07603 36143 ft 405 kts 274°
2026-04-20 13:47 30.55395 114.01186 36136 ft 413 kts 282°
2026-04-20 13:48 30.56852 113.94724 36121 ft 414 kts 276°
2026-04-20 13:48 30.57541 113.88097 36133 ft 414 kts 271°
2026-04-20 13:49 30.57714 113.81438 36140 ft 411 kts 262°
2026-04-20 13:49 30.57334 113.74805 36152 ft 413 kts 265°
2026-04-20 13:50 30.57125 113.68130 36145 ft 415 kts 265°
2026-04-20 13:50 30.56930 113.61432 36153 ft 416 kts 265°
2026-04-20 13:51 30.56687 113.54716 36155 ft 417 kts 264°
2026-04-20 13:51 30.56415 113.48038 36168 ft 417 kts 264°
2026-04-20 13:52 30.56142 113.41317 36173 ft 417 kts 264°
2026-04-20 13:52 30.55879 113.34583 36186 ft 418 kts 264°
2026-04-20 13:53 30.55613 113.27849 36186 ft 418 kts 264°
2026-04-20 13:53 30.55336 113.21109 36191 ft 418 kts 264°
2026-04-20 13:54 30.55060 113.14370 36196 ft 418 kts 264°
2026-04-20 13:54 30.54780 113.07633 36197 ft 418 kts 264°
2026-04-20 13:55 30.54499 113.00891 36202 ft 418 kts 264°
2026-04-20 13:55 30.54217 112.94148 36209 ft 418 kts 264°
2026-04-20 13:56 30.53926 112.87415 36210 ft 418 kts 264°
2026-04-20 13:56 30.53634 112.80677 36194 ft 418 kts 264°
2026-04-20 13:57 30.53332 112.73930 36187 ft 419 kts 264°
2026-04-20 13:57 30.53080 112.68309 36197 ft 420 kts 264°
2026-04-20 13:58 30.52781 112.61535 36206 ft 421 kts 264°
2026-04-20 13:58 30.52477 112.54751 36217 ft 421 kts 264°
2026-04-20 13:59 30.52166 112.47964 36220 ft 421 kts 264°
2026-04-20 13:59 30.51848 112.41177 36234 ft 422 kts 264°
2026-04-20 14:00 30.51532 112.34382 36229 ft 422 kts 264°
2026-04-20 14:00 30.51215 112.27589 36240 ft 422 kts 264°
2026-04-20 14:01 30.50887 112.20800 36241 ft 422 kts 264°
2026-04-20 14:01 30.50557 112.14004 36251 ft 422 kts 264°
2026-04-20 14:02 30.50219 112.07210 36251 ft 422 kts 264°
2026-04-20 14:02 30.49884 112.00403 36254 ft 423 kts 264°
2026-04-20 14:03 30.49541 111.93599 36254 ft 423 kts 264°
2026-04-20 14:03 30.49196 111.86787 36258 ft 423 kts 264°
2026-04-20 14:04 30.48847 111.79978 36262 ft 423 kts 264°
2026-04-20 14:04 30.48494 111.73172 36275 ft 423 kts 264°
2026-04-20 14:05 30.48142 111.66373 36274 ft 422 kts 264°
2026-04-20 14:05 30.47783 111.59573 36244 ft 423 kts 264°
2026-04-20 14:06 30.47413 111.52763 36249 ft 424 kts 264°
2026-04-20 14:06 30.46826 111.45977 36252 ft 423 kts 259°
2026-04-20 14:07 30.45894 111.39244 36257 ft 423 kts 259°
2026-04-20 14:07 30.44976 111.32506 36260 ft 423 kts 259°
2026-04-20 14:08 30.44045 111.25767 36268 ft 424 kts 259°
2026-04-20 14:08 30.43105 111.19028 36271 ft 424 kts 259°
2026-04-20 14:09 30.42165 111.12335 36289 ft 423 kts 259°
2026-04-20 14:09 30.41224 111.05607 36287 ft 423 kts 259°
2026-04-20 14:10 30.40286 110.98894 36288 ft 422 kts 259°
2026-04-20 14:10 30.39333 110.92184 36286 ft 422 kts 259°
2026-04-20 14:11 30.38371 110.85480 36281 ft 422 kts 259°
2026-04-20 14:11 30.37416 110.78779 36279 ft 422 kts 259°
2026-04-20 14:12 30.36462 110.72084 36263 ft 422 kts 259°
2026-04-20 14:12 30.35501 110.65383 36256 ft 422 kts 259°
2026-04-20 14:13 30.34537 110.58669 36246 ft 422 kts 259°
2026-04-20 14:13 30.33564 110.51952 36255 ft 423 kts 259°
2026-04-20 14:14 30.32585 110.45229 36260 ft 424 kts 260°
2026-04-20 14:14 30.31605 110.38506 36258 ft 424 kts 260°
2026-04-20 14:15 30.30622 110.31783 36250 ft 424 kts 260°
2026-04-20 14:15 30.29641 110.25063 36249 ft 424 kts 260°
2026-04-20 14:16 30.28649 110.18347 36236 ft 424 kts 260°
2026-04-20 14:16 30.27650 110.11626 36240 ft 424 kts 260°
2026-04-20 14:17 30.26646 110.04911 36224 ft 424 kts 260°
2026-04-20 14:17 30.25642 109.98202 36227 ft 423 kts 261°
2026-04-20 14:18 30.24648 109.91491 36210 ft 423 kts 261°
2026-04-20 14:18 30.23647 109.84794 36197 ft 423 kts 261°
2026-04-20 14:19 30.22640 109.78097 36194 ft 423 kts 261°
2026-04-20 14:19 30.21632 109.71400 36194 ft 423 kts 261°
2026-04-20 14:20 30.20611 109.64710 36194 ft 423 kts 261°
2026-04-20 14:20 30.19345 109.58081 36191 ft 423 kts 254°
2026-04-20 14:21 30.17620 109.51582 36182 ft 423 kts 254°
2026-04-20 14:21 30.15898 109.45083 36182 ft 423 kts 254°
2026-04-20 14:22 30.14173 109.38576 36174 ft 424 kts 254°
2026-04-20 14:22 30.12436 109.32073 36164 ft 423 kts 254°
2026-04-20 14:23 30.10708 109.25615 36175 ft 424 kts 254°
2026-04-20 14:23 30.08967 109.19103 36174 ft 424 kts 254°
2026-04-20 14:24 30.07220 109.12598 36172 ft 424 kts 254°
2026-04-20 14:24 30.05461 109.06101 36170 ft 424 kts 254°
2026-04-20 14:25 30.03708 108.99612 36173 ft 423 kts 254°
2026-04-20 14:25 30.01963 108.93122 36168 ft 423 kts 255°
2026-04-20 14:26 30.00264 108.86631 36166 ft 423 kts 255°
2026-04-20 14:26 29.98565 108.80137 36156 ft 423 kts 255°
2026-04-20 14:27 29.96851 108.73653 36158 ft 422 kts 255°
2026-04-20 14:27 29.95140 108.67180 36141 ft 421 kts 255°
2026-04-20 14:28 29.93424 108.60709 36153 ft 422 kts 255°
2026-04-20 14:28 29.91712 108.54244 36139 ft 422 kts 255°
2026-04-20 14:29 29.89987 108.47778 36140 ft 422 kts 255°
2026-04-20 14:29 29.88267 108.41322 36125 ft 422 kts 254°
2026-04-20 14:30 29.86543 108.34863 36129 ft 422 kts 254°
2026-04-20 14:30 29.84809 108.28399 36126 ft 422 kts 254°
2026-04-20 14:31 29.83072 108.21940 36126 ft 422 kts 254°
2026-04-20 14:31 29.81339 108.15483 36108 ft 422 kts 254°
2026-04-20 14:32 29.79606 108.09023 36111 ft 422 kts 254°
2026-04-20 14:32 29.77859 108.02572 36108 ft 422 kts 254°
2026-04-20 14:33 29.76107 107.96120 36092 ft 422 kts 254°
2026-04-20 14:33 29.74352 107.89673 36091 ft 422 kts 254°
2026-04-20 14:34 29.72603 107.83228 36074 ft 422 kts 254°
2026-04-20 14:34 29.70857 107.76797 36086 ft 421 kts 254°
2026-04-20 14:35 29.69095 107.70373 36069 ft 421 kts 254°
2026-04-20 14:35 29.67329 107.63954 36063 ft 421 kts 254°
2026-04-20 14:36 29.65991 107.57426 36047 ft 419 kts 267°
2026-04-20 14:36 29.66586 107.50794 36054 ft 420 kts 285°
2026-04-20 14:37 29.68285 107.44373 36038 ft 420 kts 285°
2026-04-20 14:37 29.69977 107.37933 36041 ft 421 kts 285°
2026-04-20 14:38 29.71448 107.31417 36030 ft 421 kts 282°
2026-04-20 14:38 29.72715 107.24834 36034 ft 422 kts 282°
2026-04-20 14:39 29.75038 107.18651 36023 ft 426 kts 302°
2026-04-20 14:39 29.79133 107.13682 36022 ft 431 kts 315°
2026-04-20 14:40 29.83594 107.09056 36027 ft 432 kts 314°
2026-04-20 14:40 29.88048 107.04407 36031 ft 432 kts 314°
2026-04-20 14:41 29.92503 106.99736 36023 ft 433 kts 314°
2026-04-20 14:41 29.96965 106.95048 36021 ft 434 kts 314°
2026-04-20 14:42 30.01402 106.90391 36020 ft 435 kts 314°
2026-04-20 14:42 30.05877 106.85696 36023 ft 435 kts 314°
2026-04-20 14:43 30.10349 106.80988 36027 ft 435 kts 314°
2026-04-20 14:43 30.14819 106.76277 36031 ft 435 kts 314°
2026-04-20 14:44 30.18567 106.72326 36033 ft 435 kts 314°
2026-04-20 14:44 30.23038 106.67604 36037 ft 435 kts 314°
2026-04-20 14:45 30.27476 106.62898 36028 ft 436 kts 314°
2026-04-20 14:45 30.31983 106.58117 36027 ft 437 kts 314°
2026-04-20 14:46 30.36465 106.53369 36030 ft 437 kts 314°
2026-04-20 14:46 30.40953 106.48611 36034 ft 438 kts 314°
2026-04-20 14:47 30.45442 106.43841 36042 ft 438 kts 314°
2026-04-20 14:48 30.52135 106.36707 36056 ft 438 kts 314°
2026-04-20 14:48 30.56611 106.31918 36055 ft 438 kts 314°
2026-04-20 14:49 30.60768 106.26805 36050 ft 433 kts 302°
2026-04-20 14:49 30.64020 106.20925 36050 ft 433 kts 300°
2026-04-20 14:50 30.67269 106.15031 36056 ft 433 kts 300°
2026-04-20 14:50 30.70522 106.09134 36057 ft 434 kts 300°
2026-04-20 14:51 30.72937 106.02797 36059 ft 428 kts 281°
2026-04-20 14:51 30.73254 105.95945 36061 ft 426 kts 262°
2026-04-20 14:51 30.72780 105.92541 35916 ft 428 kts 261°
2026-04-20 14:52 30.72291 105.89124 35543 ft 428 kts 261°
2026-04-20 14:52 30.71806 105.85705 35183 ft 430 kts 261°
2026-04-20 14:52 30.71318 105.82277 34831 ft 431 kts 261°
2026-04-20 14:52 30.70829 105.78830 34445 ft 433 kts 261°
2026-04-20 14:53 30.70340 105.75371 33985 ft 435 kts 261°
2026-04-20 14:53 30.69847 105.71896 33463 ft 437 kts 261°
2026-04-20 14:53 30.69350 105.68405 32946 ft 438 kts 261°
2026-04-20 14:53 30.68850 105.64908 32438 ft 440 kts 261°
2026-04-20 14:54 30.68350 105.61397 31958 ft 441 kts 261°
2026-04-20 14:54 30.67847 105.57878 31458 ft 442 kts 261°
2026-04-20 14:54 30.67340 105.54344 30978 ft 444 kts 261°
2026-04-20 14:54 30.66829 105.50802 30505 ft 446 kts 261°
2026-04-20 14:55 30.66315 105.47246 30045 ft 447 kts 261°
2026-04-20 14:55 30.65796 105.43680 29508 ft 449 kts 261°
2026-04-20 14:55 30.65275 105.40100 28973 ft 450 kts 260°
2026-04-20 14:55 30.64752 105.36505 28449 ft 452 kts 260°
2026-04-20 14:56 30.64235 105.32950 27950 ft 453 kts 260°
2026-04-20 14:56 30.63708 105.29336 27443 ft 455 kts 260°
2026-04-20 14:56 30.63177 105.25711 26949 ft 456 kts 260°
2026-04-20 14:56 30.62606 105.22092 26467 ft 457 kts 256°
2026-04-20 14:57 30.61709 105.18546 25969 ft 458 kts 253°
2026-04-20 14:57 30.60761 105.15011 25500 ft 460 kts 252°
2026-04-20 14:57 30.59804 105.11465 25038 ft 461 kts 252°
2026-04-20 14:57 30.58844 105.07906 24582 ft 463 kts 252°
2026-04-20 14:58 30.57883 105.04335 24025 ft 464 kts 252°
2026-04-20 14:58 30.56920 105.00756 23467 ft 464 kts 252°
2026-04-20 14:58 30.55961 104.97192 22816 ft 461 kts 252°
2026-04-20 14:58 30.55013 104.93661 22178 ft 456 kts 252°
2026-04-20 14:59 30.54073 104.90165 21556 ft 452 kts 252°
2026-04-20 14:59 30.53138 104.86700 20944 ft 448 kts 252°
2026-04-20 14:59 30.52206 104.83264 20345 ft 444 kts 252°
2026-04-20 14:59 30.51285 104.79865 19759 ft 440 kts 252°
2026-04-20 15:00 30.50372 104.76489 19180 ft 437 kts 252°
2026-04-20 15:00 30.49468 104.73147 18620 ft 433 kts 252°
2026-04-20 15:00 30.48575 104.69841 18034 ft 426 kts 252°
2026-04-20 15:00 30.47693 104.66587 17401 ft 420 kts 251°
2026-04-20 15:01 30.46820 104.63377 16779 ft 414 kts 251°
2026-04-20 15:01 30.45957 104.60216 16159 ft 408 kts 251°
2026-04-20 15:01 30.45106 104.57108 15635 ft 401 kts 251°
2026-04-20 15:01 30.44270 104.54058 15170 ft 393 kts 251°
2026-04-20 15:02 30.43451 104.51068 14705 ft 386 kts 251°
2026-04-20 15:02 30.42648 104.48129 14246 ft 379 kts 251°
2026-04-20 15:02 30.41857 104.45241 13794 ft 373 kts 250°
2026-04-20 15:02 30.41076 104.42397 13281 ft 368 kts 250°
2026-04-20 15:03 30.40305 104.39593 12774 ft 363 kts 250°
2026-04-20 15:03 30.39545 104.36819 12276 ft 359 kts 250°
2026-04-20 15:03 30.38793 104.34078 11861 ft 354 kts 250°
2026-04-20 15:03 30.38061 104.31416 11744 ft 339 kts 250°
2026-04-20 15:04 30.37365 104.28886 11762 ft 321 kts 250°
2026-04-20 15:04 30.36712 104.26511 11760 ft 305 kts 250°
2026-04-20 15:04 30.36077 104.24208 11519 ft 299 kts 249°
2026-04-20 15:04 30.35443 104.21922 11156 ft 297 kts 249°
2026-04-20 15:05 30.34812 104.19650 10800 ft 295 kts 250°
2026-04-20 15:05 30.34186 104.17392 10448 ft 294 kts 249°
2026-04-20 15:05 30.33563 104.15145 10088 ft 292 kts 250°
2026-04-20 15:05 30.32945 104.12914 9730 ft 290 kts 250°
2026-04-20 15:06 30.32332 104.10694 9345 ft 289 kts 250°
2026-04-20 15:06 30.31722 104.08484 8962 ft 287 kts 250°
2026-04-20 15:06 30.31115 104.06288 8566 ft 286 kts 251°
2026-04-20 15:06 30.30510 104.04108 8200 ft 284 kts 251°
2026-04-20 15:07 30.29908 104.01945 7880 ft 280 kts 251°
2026-04-20 15:07 30.29317 103.99827 7635 ft 273 kts 252°
2026-04-20 15:07 30.28742 103.97760 7387 ft 267 kts 252°
2026-04-20 15:07 30.28330 103.95701 7141 ft 260 kts 266°
2026-04-20 15:08 30.28441 103.93646 6898 ft 254 kts 283°
2026-04-20 15:08 30.29013 103.91745 6656 ft 248 kts 292°
2026-04-20 15:08 30.29656 103.89921 6413 ft 242 kts 292°
2026-04-20 15:08 30.30415 103.88236 6195 ft 233 kts 307°
2026-04-20 15:09 30.31554 103.86952 5940 ft 226 kts 325°
2026-04-20 15:09 30.32945 103.86171 5682 ft 220 kts 343°
2026-04-20 15:09 30.34432 103.85927 5392 ft 214 kts 360°
2026-04-20 15:09 30.35866 103.86212 5026 ft 212 kts 18°
2026-04-20 15:10 30.37206 103.86824 4674 ft 200 kts 21°
2026-04-20 15:10 30.38459 103.87405 4481 ft 192 kts 21°
2026-04-20 15:10 30.39684 103.87972 4241 ft 188 kts 22°
2026-04-20 15:10 30.40844 103.88510 4008 ft 173 kts 22°
2026-04-20 15:11 30.41939 103.89017 3778 ft 167 kts 22°
2026-04-20 15:11 30.42997 103.89508 3557 ft 157 kts 22°
2026-04-20 15:11 30.43989 103.89968 3366 ft 151 kts 23°
2026-04-20 15:11 30.44953 103.90416 3171 ft 148 kts 23°
2026-04-20 15:12 30.45905 103.90858 2975 ft 146 kts 23°
2026-04-20 15:12 30.46851 103.91297 2784 ft 147 kts 23°
2026-04-20 15:12 30.47794 103.91735 2601 ft 146 kts 22°
2026-04-20 15:12 30.48739 103.92174 2413 ft 146 kts 22°
2026-04-20 15:13 30.49679 103.92611 2195 ft 146 kts 22°
2026-04-20 15:13 30.50622 103.93050 2011 ft 146 kts 22°
2026-04-20 15:13 30.51574 103.93491 1820 ft 148 kts 21°
2026-04-20 15:13 30.52527 103.93934 1682 ft 145 kts 22°
2026-04-20 15:14 30.53339 103.94316 1664 ft 98 kts 21°
2026-04-20 15:14 30.53810 103.94534 1653 ft 48 kts 21°
2026-04-20 15:14 30.54023 103.94623 1651 ft 22 kts
2026-04-20 15:14 30.54170 103.94617 1648 ft 20 kts 347°
2026-04-20 15:15 30.54302 103.94594 1647 ft 18 kts 353°
2026-04-20 15:15 30.54417 103.94593 1647 ft 15 kts 12°
2026-04-20 15:15 30.54511 103.94632 1647 ft 13 kts 21°
2026-04-20 15:15 30.54592 103.94670 1647 ft 12 kts 22°
2026-04-20 15:16 30.54674 103.94708 1647 ft 14 kts 22°
2026-04-20 15:16 30.54768 103.94752 1647 ft 14 kts 21°
2026-04-20 15:16 30.54836 103.94708 1647 ft 12 kts 297°
2026-04-20 15:16 30.54889 103.94639 1647 ft 13 kts 330°
2026-04-20 15:17 30.54991 103.94587 1647 ft 19 kts 336°
2026-04-20 15:17 30.55128 103.94519 1647 ft 22 kts 337°
2026-04-20 15:17 30.55263 103.94454 1647 ft 21 kts 336°
2026-04-20 15:17 30.55410 103.94379 1647 ft 25 kts 336°
2026-04-20 15:18 30.55566 103.94302 1647 ft 24 kts 338°
2026-04-20 15:18 30.55730 103.94222 1647 ft 27 kts 337°
2026-04-20 15:18 30.55849 103.94193 1647 ft 14 kts 14°
2026-04-20 15:18 30.55939 103.94233 1647 ft 14 kts 22°
2026-04-20 15:19 30.56039 103.94281 1647 ft 18 kts 21°
2026-04-20 15:19 30.56167 103.94338 1647 ft 22 kts 21°
2026-04-20 15:19 30.56311 103.94406 1647 ft 22 kts 23°
2026-04-20 15:19 30.56452 103.94472 1647 ft 21 kts 21°
2026-04-20 15:20 30.56586 103.94535 1647 ft 21 kts 22°
2026-04-20 15:20 30.56719 103.94599 1647 ft 20 kts 22°
2026-04-20 15:20 30.56843 103.94658 1647 ft 19 kts 21°
2026-04-20 15:20 30.56971 103.94692 1647 ft 18 kts 12°
2026-04-20 15:21 30.57088 103.94742 1647 ft 18 kts 22°
2026-04-20 15:21 30.57199 103.94795 1647 ft 17 kts 23°
2026-04-20 15:21 30.57305 103.94845 1647 ft 16 kts 22°
2026-04-20 15:21 30.57407 103.94892 1647 ft 15 kts 21°
2026-04-20 15:22 30.57499 103.94936 1647 ft 11 kts 22°
2026-04-20 15:22 30.57520 103.95003 1647 ft 9 kts 110°
2026-04-20 15:22 30.57497 103.95068 1647 ft 8 kts 112°
2026-04-20 15:22 30.57464 103.95100 1647 ft 4 kts 182°
2026-04-20 15:23 30.57440 103.95099 1647 ft 3 kts 182°
2026-04-20 15:23 30.57418 103.95097 1647 ft 3 kts 183°
2026-04-20 15:23 30.57394 103.95095 1647 ft 2 kts 183°
2026-04-20 15:23 30.57391 103.95095 1647 ft 0 kts 183°